Overview Statistics Trail Chart Weather Telemetry Raw packets
 

This is the latest recevied weather packets stored in our database for station/object W0WC. If no packets are shown the sender has not sent any weather packets the latest 10 day(s).

<< 46 47 48 49 50 51 52 >>
Time Temp. Humidity Pressure Rain* Wind** Luminosity Snow
1788372332 36.11° C 39% 1016.8 hPa 0 mm - 712 W/m² -
1788372028 36.67° C 39% 1017.3 hPa 0 mm - 713 W/m² -
1788371728 36.67° C 38% 1017.3 hPa 0 mm - 711 W/m² -
1788371424 36.67° C 39% 1017.4 hPa 0 mm - 704 W/m² -
1788371120 36.11° C 41% 1017.3 hPa 0 mm - 704 W/m² -
1788370815 36.11° C 40% 1017.5 hPa 0 mm - 705 W/m² -
1788370515 35.56° C 42% 1017.6 hPa 0 mm - 702 W/m² -
1788370210 36.11° C 41% 1017.6 hPa 0 mm - 697 W/m² -
1788369909 36.11° C 41% 1017.8 hPa 0 mm - 689 W/m² -
1788369605 35.56° C 41% 1018 hPa 0 mm - 684 W/m² -
1788369300 35.56° C 41% 1017.8 hPa 0 mm - 680 W/m² -
1788368996 35.56° C 42% 1018 hPa 0 mm - 672 W/m² -
1788368696 35.56° C 41% 1017.9 hPa 0 mm - 670 W/m² -
1788368392 35.56° C 42% 1017.9 hPa 0 mm - 661 W/m² -
1788368091 35° C 43% 1018.1 hPa 0 mm - 654 W/m² -
1788367786 35.56° C 43% 1018.1 hPa 0 mm - 645 W/m² -
1788367481 35.56° C 42% 1018.3 hPa 0 mm - 642 W/m² -
1788367180 34.44° C 45% 1018.2 hPa 0 mm - 633 W/m² -
1788366876 34.44° C 44% 1018.2 hPa 0 mm - 623 W/m² -
1788366573 34.44° C 45% 1018.3 hPa 0 mm - 609 W/m² -
1788366269 34.44° C 45% 1018.3 hPa 0 mm - 602 W/m² -
1788365968 34.44° C 46% 1018.6 hPa 0 mm - 590 W/m² -
1788365664 34.44° C 46% 1018.5 hPa 0 mm - 577 W/m² -
1788365360 33.89° C 46% 1018.4 hPa 0 mm - 573 W/m² -
1788365055 33.33° C 48% 1018.4 hPa 0 mm - 561 W/m² -

* Rain latest hour (hover to see other rain measurements)
** Current wind speed in m/s (hover to see current wind gust speed)